Temp
13 14 15 16 15 15 15 13 10 11 13 11 10 11 11 10 10 9 8 7 7 7 6 6 6 6 5 5 5 5 4 3 3 3 2 1 0 -1 -2 -1 -2 -2 -2 -2
11 13 12 12 12 12 14 15 14 15 12 12 12 11 10 9 8 7 7 6 6 6 6 6 5 5 4 4 4 3 3 3 2 2 2 1 -1 -2 -2 -2 -2 -2 -2 -3
8 8 7 8 12 13 15 15 15 12 11 10 9 9 7 7 7 6 6 6 6 6 6 5 5 4 4 3 3 2 2 1 1 0 0 0 -1 -2 -2 -2 -2 -2 -3 -3
4 4 7 12 14 14 13 13 12 11 9 9 9 8 7 7 6 6 6 6 6 6 5 5 4 3 3 2 2 1 1 0 0 -0 -0 -1 -2 -3 -2 -2 -2 -2 -3 -3
5 4 8 12 14 13 12 11 10 8 8 8 8 9 6 6 6 6 6 6 6 5 5 4 4 3 2 2 1 0 -0 -0 -1 -2 -2 -3 -3 -3 -2 -3 -2 -3 -3 -4
2 4 4 9 13 14 13 7 9 8 7 7 7 2 5 7 6 6 6 6 5 5 5 4 3 2 2 1 0 -0 -1 -1 -2 -2 -2 -3 -3 -2 -2 -3 -3 -3 -4 -4
4 2 5 9 13 13 7 7 8 7 7 7 5 6 6 6 6 6 6 6 5 5 4 3 2 2 1 0 -0 -1 -1 -2 -2 -3 -3 -2 -2 -2 -2 -3 -3 -4 -4 -5
5 5 5 12 12 9 8 8 8 7 6 6 6 6 6 6 6 6 6 5 5 4 3 3 2 1 0 -0 -1 -1 -2 -2 -3 -3 -3 -3 -3 -3 -3 -3 -4 -4 -5 -6
6 5 10 13 12 10 9 8 7 7 6 6 6 6 6 6 6 5 5 4 4 3 2 2 1 1 -0 -1 -1 -2 -2 -3 -4 -4 -3 -4 -3 -3 -4 -4 -4 -5 -6 -7
7 11 13 11 11 10 9 8 7 6 6 6 6 6 6 5 4 4 3 3 2 2 1 1 0 -0 -1 -1 -2 -2 -3 -4 -4 -4 -4 -4 -4 -4 -4 -5 -5 -6 -7 -8
7 11 11 9 9 7 7 7 6 6 6 6 6 5 5 4 3 3 2 2 1 1 0 0 -1 -1 -1 -2 -3 -3 -3 -4 -4 -4 -5 -5 -5 -5 -5 -5 -6 -7 -7 -8
6 11 10 8 8 7 7 7 7 6 6 6 5 4 4 3 2 2 2 1 0 -0 -1 -1 -2 -2 -2 -3 -3 -4 -4 -4 -4 -5 -5 -5 -5 -6 -6 -6 -7 -8 -8 -9
11 9 10 8 7 7 7 7 7 6 5 5 4 3 3 3 2 1 0 -1 -1 -2 -2 -2 -3 -3 -4 -4 -4 -4 -4 -4 -5 -5 -6 -6 -6 -7 -7 -7 -8 -8 -8 -9
10 9 7 7 7 6 7 6 6 5 4 4 3 3 3 1 0 -0 -1 -1 -2 -2 -2 -3 -3 -5 -5 -5 -5 -5 -5 -5 -5 -6 -6 -6 -7 -8 -8 -8 -8 -8 -9 -9
8 8 7 7 6 6 6 5 5 4 4 3 3 2 1 -0 -1 -1 -1 -2 -2 -2 -2 -4 -5 -5 -5 -5 -5 -5 -6 -6 -5 -6 -6 -7 -8 -8 -8 -8 -8 -9 -9 -9
7 7 7 6 6 5 5 4 4 3 3 2 1 0 -0 -1 -1 -1 -2 -2 -3 -2 -2 -4 -6 -5 -5 -5 -5 -6 -6 -6 -6 -7 -7 -8 -8 -8 -8 -8 -9 -9 -9 -9
6 6 6 6 5 4 4 3 3 2 2 1 0 -1 -1 -1 -2 -2 -1 -2 -2 -2 -4 -5 -5 -5 -5 -5 -6 -6 -7 -7 -7 -7 -7 -8 -8 -8 -8 -9 -9 -9 -9 -9
6 6 5 5 4 4 3 2 2 1 1 0 -1 -1 -1 -2 -2 -2 -2 -2 -2 -3 -4 -5 -5 -5 -5 -5 -6 -6 -7 -7 -7 -8 -8 -8 -8 -8 -9 -9 -9 -9 -9 -9
5 4 4 3 3 2 2 1 1 0 -0 -1 -1 -1 -2 -2 -2 -2 -2 -5 -6 -6 -4 -6 -5 -5 -5 -5 -6 -6 -6 -7 -8 -8 -9 -8 -8 -8 -9 -9 -9 -9 -9 -9
3 3 2 2 1 1 1 1 0 -0 -0 -1 -1 -2 -2 -2 -3 -3 -4 -6 -6 -6 -6 -5 -5 -5 -5 -5 -6 -6 -6 -7 -8 -9 -9 -8 -8 -8 -8 -9 -9 -9 -9 -9
2 2 1 1 2 1 1 0 -0 -0 -1 -1 -2 -2 -2 -2 -3 -5 -6 -6 -5 -5 -5 -5 -6 -5 -5 -6 -6 -6 -7 -7 -8 -8 -9 -8 -8 -8 -8 -9 -9 -9 -9 -9
2 1 1 1 1 1 0 -0 -1 -1 -1 -1 -2 -2 -2 -3 -4 -5 -5 -5 -6 -6 -6 -6 -6 -6 -6 -6 -6 -7 -7 -7 -7 -8 -9 -9 -9 -9 -8 -9 -9 -10 -10 -10
1 1 0 0 -0 -0 -0 -1 -1 -1 -2 -2 -2 -2 -3 -3 -4 -5 -5 -5 -6 -7 -7 -6 -6 -6 -6 -6 -6 -7 -6 -7 -7 -7 -8 -9 -9 -9 -9 -9 -9 -10 -10 -10
0 -0 -0 -1 -1 -1 -1 -1 -2 -2 -2 -2 -2 -3 -3 -4 -4 -5 -6 -6 -6 -7 -7 -7 -7 -6 -6 -6 -6 -6 -6 -6 -7 -7 -8 -8 -9 -9 -9 -9 -9 -9 -10 -10
-0 -1 -1 -1 -1 -1 -2 -2 -2 -2 -2 -2 -2 -3 -4 -5 -5 -6 -6 -7 -6 -7 -7 -7 -7 -6 -6 -6 -7 -7 -6 -6 -6 -6 -7 -8 -8 -9 -9 -9 -9 -9 -9 -10
-1 -1 -2 -2 -2 -2 -2 -2 -2 -2 -2 -3 -3 -4 -4 -5 -6 -7 -7 -7 -7 -7 -7 -7 -7 -6 -6 -6 -6 -6 -6 -6 -6 -6 -7 -7 -8 -9 -9 -9 -10 -10 -10 -10
-2 -2 -2 -2 -2 -2 -2 -3 -3 -3 -4 -4 -5 -5 -6 -7 -7 -7 -7 -7 -7 -7 -7 -7 -7 -7 -7 -7 -7 -6 -6 -6 -6 -6 -7 -7 -8 -8 -9 -9 -9 -10 -10 -10
Height
1546 1544 1542 1540 1541 1541 1542 1548 1562 1553 1548 1553 1553 1553 1554 1555 1555 1555 1556 1555 1554 1553 1550 1548 1546 1545 1543 1540 1537 1533 1528 1525 1519 1514 1510 1505 1501 1496 1496 1495 1495 1494 1490 1486
1553 1546 1547 1549 1546 1544 1541 1539 1539 1539 1548 1547 1549 1550 1552 1554 1554 1555 1555 1552 1551 1550 1549 1546 1544 1542 1539 1536 1533 1529 1525 1520 1515 1509 1505 1500 1498 1492 1491 1488 1490 1489 1486 1482
1567 1559 1561 1565 1545 1540 1535 1534 1535 1547 1546 1550 1550 1550 1553 1553 1553 1553 1552 1550 1550 1549 1547 1544 1541 1538 1535 1532 1528 1524 1520 1515 1511 1506 1501 1497 1492 1495 1492 1488 1485 1484 1480 1477
1577 1570 1576 1542 1534 1532 1536 1538 1539 1543 1548 1548 1549 1551 1551 1552 1551 1551 1550 1549 1548 1547 1544 1541 1538 1535 1531 1527 1523 1519 1516 1511 1507 1502 1497 1492 1489 1490 1488 1485 1482 1480 1476 1473
1578 1579 1558 1539 1533 1536 1540 1547 1543 1545 1547 1548 1549 1550 1551 1550 1549 1549 1548 1547 1546 1543 1540 1537 1533 1530 1527 1523 1520 1516 1510 1507 1503 1499 1493 1489 1487 1486 1484 1481 1479 1476 1473 1470
1580 1585 1584 1545 1535 1534 1536 1555 1546 1545 1547 1548 1548 1555 1548 1548 1547 1546 1545 1544 1542 1539 1536 1532 1530 1526 1522 1518 1515 1511 1507 1503 1498 1494 1490 1487 1483 1482 1481 1478 1475 1471 1469 1465
1572 1583 1560 1535 1533 1533 1554 1550 1541 1543 1544 1545 1547 1547 1546 1545 1545 1543 1542 1540 1538 1535 1532 1528 1524 1520 1516 1513 1510 1506 1501 1497 1493 1490 1487 1484 1481 1479 1477 1474 1471 1468 1466 1463
1565 1569 1565 1528 1531 1540 1535 1535 1537 1539 1540 1541 1543 1543 1543 1542 1541 1540 1538 1536 1533 1530 1527 1523 1519 1515 1511 1508 1504 1501 1496 1492 1488 1486 1483 1480 1479 1476 1474 1470 1468 1465 1463 1460
1547 1543 1524 1524 1524 1526 1528 1530 1534 1536 1537 1538 1539 1540 1539 1539 1538 1536 1534 1532 1529 1525 1521 1519 1514 1510 1506 1502 1498 1495 1491 1486 1483 1481 1479 1477 1475 1472 1470 1467 1464 1461 1459 1455
1530 1521 1520 1520 1522 1523 1526 1527 1530 1533 1534 1535 1536 1536 1535 1535 1533 1531 1529 1526 1524 1520 1517 1513 1509 1505 1501 1497 1492 1489 1485 1482 1479 1477 1475 1474 1472 1469 1467 1464 1461 1459 1455 1452
1522 1518 1518 1520 1519 1521 1524 1527 1529 1529 1529 1532 1533 1532 1532 1530 1529 1527 1525 1522 1519 1515 1511 1507 1504 1500 1496 1491 1487 1483 1481 1478 1476 1474 1472 1470 1468 1466 1463 1461 1458 1455 1453 1450
1521 1514 1514 1516 1518 1520 1522 1523 1525 1526 1528 1529 1528 1528 1528 1527 1526 1523 1520 1517 1514 1511 1506 1502 1498 1493 1489 1484 1481 1478 1477 1475 1473 1470 1469 1467 1465 1463 1461 1458 1456 1453 1451 1448
1509 1509 1510 1512 1516 1517 1520 1521 1522 1523 1524 1525 1525 1525 1525 1524 1522 1519 1516 1512 1509 1505 1501 1496 1491 1486 1482 1479 1476 1473 1472 1471 1469 1467 1466 1464 1462 1459 1457 1455 1453 1451 1448 1445
1504 1506 1509 1510 1512 1514 1517 1519 1521 1522 1522 1522 1522 1522 1522 1520 1518 1515 1511 1508 1503 1499 1494 1488 1482 1479 1475 1472 1470 1468 1467 1467 1465 1464 1462 1460 1458 1456 1455 1452 1450 1449 1446 1443
1501 1503 1505 1508 1511 1512 1515 1517 1518 1519 1519 1520 1520 1520 1517 1514 1512 1509 1506 1502 1496 1492 1486 1481 1476 1473 1470 1466 1464 1464 1464 1463 1461 1460 1458 1456 1455 1454 1452 1450 1448 1446 1445 1442
1499 1501 1504 1507 1507 1511 1513 1514 1515 1516 1517 1518 1516 1514 1511 1509 1506 1503 1500 1495 1490 1484 1480 1475 1470 1467 1464 1461 1460 1460 1460 1458 1457 1456 1454 1453 1452 1450 1448 1447 1445 1444 1442 1440
1494 1499 1502 1503 1505 1509 1510 1512 1513 1514 1514 1512 1511 1509 1506 1503 1500 1496 1492 1488 1483 1478 1474 1470 1466 1463 1460 1458 1457 1457 1456 1454 1453 1452 1450 1449 1448 1447 1445 1444 1442 1441 1439 1438
1494 1496 1499 1502 1505 1508 1510 1511 1512 1511 1509 1507 1505 1503 1500 1498 1494 1490 1485 1480 1475 1471 1468 1466 1463 1459 1457 1454 1453 1453 1452 1450 1449 1447 1446 1445 1444 1443 1442 1440 1439 1438 1437 1435
1495 1497 1499 1503 1506 1508 1509 1509 1507 1505 1504 1502 1500 1497 1494 1492 1488 1483 1478 1474 1470 1466 1463 1461 1458 1455 1452 1451 1450 1449 1447 1445 1445 1443 1442 1441 1440 1439 1438 1437 1436 1435 1433 1432
1498 1500 1503 1505 1506 1506 1504 1503 1500 1499 1498 1496 1494 1492 1488 1486 1482 1477 1473 1470 1468 1464 1459 1456 1453 1451 1448 1447 1446 1444 1443 1442 1440 1439 1438 1437 1436 1435 1435 1434 1432 1431 1430 1428
1500 1501 1502 1502 1502 1500 1499 1497 1495 1493 1492 1490 1487 1486 1483 1480 1477 1473 1469 1463 1461 1458 1454 1451 1448 1444 1442 1441 1441 1440 1439 1438 1437 1435 1434 1433 1432 1431 1431 1430 1429 1427 1426 1425
1500 1500 1500 1499 1497 1495 1494 1492 1490 1488 1485 1483 1482 1481 1478 1475 1471 1467 1465 1461 1455 1452 1448 1444 1441 1437 1435 1436 1435 1435 1434 1433 1432 1430 1428 1428 1428 1427 1426 1425 1424 1423 1422 1421
1498 1497 1496 1494 1491 1489 1488 1487 1485 1483 1480 1479 1477 1475 1473 1469 1466 1461 1455 1454 1450 1447 1443 1439 1435 1432 1431 1431 1430 1429 1428 1427 1426 1425 1423 1422 1422 1421 1421 1420 1419 1418 1416 1415
1493 1492 1491 1488 1486 1484 1482 1482 1480 1479 1476 1474 1472 1470 1467 1463 1458 1455 1451 1448 1445 1441 1437 1434 1430 1428 1426 1425 1424 1423 1422 1421 1420 1419 1417 1416 1415 1415 1415 1414 1414 1413 1411 1410
1488 1487 1486 1484 1482 1480 1478 1476 1474 1473 1471 1469 1467 1464 1462 1459 1454 1449 1445 1442 1438 1435 1431 1428 1425 1423 1421 1419 1418 1416 1415 1413 1412 1411 1410 1408 1407 1407 1407 1406 1406 1406 1406 1405
1484 1483 1482 1481 1479 1477 1475 1473 1470 1468 1466 1463 1461 1458 1455 1451 1446 1443 1439 1436 1432 1429 1426 1423 1420 1417 1415 1413 1410 1408 1406 1404 1403 1402 1401 1400 1399 1398 1397 1397 1397 1398 1398 1398
1482 1480 1478 1476 1475 1473 1470 1468 1465 1462 1459 1456 1452 1450 1447 1444 1441 1438 1434 1430 1427 1424 1421 1417 1415 1412 1409 1406 1403 1400 1398 1395 1394 1392 1391 1391 1391 1390 1389 1389 1389 1390 1390 1390
Wind_Speed
4 6 5 4 5 6 4 6 6 9 8 13 6 10 12 13 14 15 13 15 15 18 18 14 15 18 22 26 28 31 33 32 35 34 27 21 26 15 14 20 14 14 18 23
3 7 9 5 8 8 7 7 6 3 7 12 15 17 14 16 16 16 15 17 18 14 15 18 19 23 22 22 28 32 35 36 37 34 30 30 22 18 9 9 13 18 22 22
2 4 5 4 4 3 2 2 2 1 5 13 12 16 16 15 13 12 15 16 14 16 16 16 20 16 20 26 32 34 32 36 28 28 33 29 15 16 15 14 13 20 20 19
2 3 2 5 4 3 6 6 7 13 11 15 15 16 14 10 10 10 13 14 14 13 16 17 17 20 25 31 34 33 34 32 33 31 34 24 10 11 17 15 17 18 18 19
2 1 5 7 2 4 4 4 9 10 11 11 8 5 12 9 12 7 9 12 13 16 18 18 22 26 30 32 30 30 28 33 36 25 21 16 13 17 14 14 17 18 20 23
2 4 6 7 4 9 6 2 8 11 8 6 4 2 4 11 10 7 12 13 15 20 19 22 22 27 29 27 28 28 30 34 33 27 22 23 17 13 11 12 18 18 20 22
4 3 7 8 2 7 5 6 8 5 2 2 1 3 10 11 5 13 14 14 18 18 19 18 24 27 23 25 26 27 31 32 26 21 19 18 17 11 15 19 16 18 22 24
2 2 7 10 3 7 6 7 8 7 3 3 5 8 8 6 13 15 15 17 17 19 18 24 22 19 24 26 25 28 31 29 23 20 15 14 14 17 19 16 17 20 22 26
8 6 10 16 10 11 9 10 12 7 4 3 7 8 5 13 14 13 16 18 15 18 25 21 21 25 27 25 28 32 35 28 20 14 14 16 16 13 15 17 17 21 25 27
4 5 7 15 13 11 8 6 5 4 4 6 7 7 10 8 11 12 14 17 23 23 22 24 28 28 25 28 31 36 27 19 15 14 15 13 16 19 17 15 20 23 24 24
3 4 4 7 10 13 10 5 8 10 6 6 3 5 7 8 13 16 21 26 27 27 30 34 32 30 28 32 32 28 22 20 14 15 14 12 14 13 15 18 21 21 21 19
6 3 5 8 13 9 6 7 7 7 7 1 3 5 9 13 17 24 27 28 29 31 32 30 30 35 38 24 22 23 20 15 15 15 12 11 12 15 17 19 20 16 17 18
6 8 9 11 8 6 7 8 11 7 3 1 4 9 15 22 25 25 24 28 29 31 30 32 34 35 29 20 16 18 16 16 17 16 11 14 17 19 22 15 14 15 16 18
10 11 9 7 3 8 11 7 4 6 1 4 9 16 23 22 23 23 26 28 29 30 33 33 34 26 25 24 24 16 15 15 15 18 17 16 15 14 13 15 15 14 15 17
15 10 7 6 9 13 8 9 5 1 4 10 16 18 19 21 22 25 26 28 30 32 34 33 32 25 22 22 14 11 12 12 17 18 19 13 12 12 14 14 13 13 12 16
12 9 9 15 15 12 8 4 2 5 10 14 19 18 19 21 23 25 27 30 31 35 34 30 26 23 20 18 9 12 11 11 13 15 19 16 12 13 14 13 13 12 12 15
17 17 16 14 12 7 4 3 6 11 15 19 18 19 21 22 24 27 30 32 34 33 27 21 22 20 19 17 11 10 12 16 19 19 20 12 13 14 13 14 12 11 13 14
12 16 15 13 9 5 5 8 11 17 19 18 18 21 23 23 26 30 33 34 34 30 23 16 20 21 20 16 12 13 16 18 20 18 11 11 11 12 15 11 11 13 13 16
16 16 11 7 4 4 9 14 17 18 17 17 21 24 24 24 28 32 31 29 27 28 23 20 21 20 19 13 12 14 16 14 12 14 13 11 11 12 13 11 11 12 13 14
11 8 4 1 6 12 16 17 18 18 17 19 22 23 24 25 29 31 26 25 24 22 23 22 21 23 21 16 15 14 11 11 12 13 11 11 12 12 12 13 13 12 12 13
4 1 4 11 16 17 17 17 18 18 20 21 20 19 23 24 26 24 23 29 30 25 21 27 25 30 20 16 16 16 15 15 14 14 14 12 13 13 13 13 13 13 13 14
5 7 13 17 18 19 17 18 19 21 21 19 15 19 23 25 28 29 26 27 30 27 29 26 27 28 15 15 17 18 19 18 19 19 18 16 16 16 14 14 17 14 14 15
11 15 18 17 19 20 20 19 18 16 15 15 17 19 23 25 28 29 33 27 29 28 28 26 25 20 15 17 18 20 20 20 21 21 22 17 17 17 17 17 17 17 16 15
15 17 19 19 19 19 19 19 18 16 18 17 18 19 22 27 33 28 27 29 29 29 27 25 22 19 17 20 22 24 22 21 21 21 20 20 20 20 20 20 19 19 18 17
17 17 17 18 19 20 21 21 22 22 21 21 22 20 22 25 25 26 25 27 26 25 26 25 21 20 19 20 25 27 28 28 27 25 24 22 22 24 25 24 23 21 20 20
16 17 18 18 19 20 22 23 24 25 26 28 26 24 26 28 26 22 21 23 23 22 22 23 21 20 21 23 25 26 27 29 30 30 29 26 24 25 25 26 25 24 23 21
17 18 20 21 21 22 22 22 22 24 24 23 27 28 26 24 23 20 21 23 23 22 22 23 23 22 22 24 25 26 28 29 30 31 31 29 26 25 24 25 24 23 23 23
Wind_Direction
328 324 319 302 317 322 290 220 154 240 228 108 128 110 77 61 68 56 35 19 1 357 4 2 355 344 338 336 329 328 325 332 328 313 302 265 287 260 280 311 312 307 318 322
319 18 13 323 308 300 297 298 305 25 93 118 93 63 63 66 60 44 22 9 356 2 356 347 344 341 341 332 327 328 331 329 332 318 302 312 300 303 299 277 303 315 323 325
256 355 350 3 254 249 259 15 138 256 91 82 52 50 80 67 48 27 8 7 5 352 346 347 345 340 331 331 331 336 332 330 339 332 326 324 324 308 269 295 306 319 326 317
215 12 47 237 326 41 107 50 42 82 78 70 55 100 87 62 31 13 6 356 351 346 346 344 336 331 332 332 332 332 330 328 327 329 322 315 313 285 293 317 325 318 320 320
115 199 296 323 72 86 87 20 63 87 68 57 35 121 103 32 13 14 352 335 333 340 343 336 332 330 331 332 329 331 327 323 327 330 318 307 295 299 310 320 312 327 324 322
80 136 208 227 69 85 68 250 80 90 68 27 37 84 266 336 340 332 330 326 329 335 331 328 327 332 333 329 329 327 321 323 323 330 310 312 317 316 309 309 323 322 320 321
177 209 284 251 248 106 100 228 150 122 68 57 62 251 303 322 316 328 324 322 327 326 328 328 331 333 326 327 326 320 319 320 327 325 325 324 322 302 305 319 322 316 316 321
192 208 273 220 123 151 171 158 182 168 183 185 274 293 294 321 325 323 320 328 327 326 323 327 333 323 324 324 319 316 318 318 318 316 324 326 308 306 313 317 313 311 319 327
176 212 225 192 203 164 175 170 180 201 202 240 275 285 310 320 319 338 340 336 337 331 334 338 325 327 326 318 316 321 322 316 312 314 314 313 317 319 323 319 320 326 331 332
100 241 246 174 180 201 220 189 178 196 221 266 276 292 320 337 346 347 340 332 331 336 333 327 326 328 322 317 317 320 325 323 316 311 316 320 320 319 316 319 320 329 332 336
257 287 103 129 181 159 160 185 223 213 210 250 263 4 2 356 343 334 327 328 327 326 322 321 324 315 312 315 315 315 320 320 313 317 318 318 320 313 313 318 325 330 334 339
240 231 195 172 174 182 213 231 238 217 171 103 357 2 338 335 328 324 321 321 323 321 321 323 317 311 311 313 306 305 309 315 320 323 313 318 308 304 308 314 320 334 339 341
242 177 185 173 183 210 223 168 150 156 125 104 344 333 328 321 317 317 322 323 324 323 321 319 315 310 316 302 294 291 292 309 320 334 316 308 314 309 310 327 341 336 339 336
234 190 155 182 175 173 170 165 163 128 91 341 330 321 314 313 317 322 324 325 323 323 322 323 324 318 308 301 294 292 283 305 314 319 321 294 303 323 330 328 331 334 333 332
198 189 163 132 157 153 161 162 136 54 313 305 309 309 313 317 319 321 325 326 323 323 323 324 325 320 313 312 288 279 293 295 304 298 314 310 312 316 318 322 323 324 327 327
161 140 144 157 138 140 151 145 200 276 290 298 307 313 315 317 315 320 325 326 324 322 323 324 328 324 316 316 269 270 282 287 290 293 310 313 307 306 316 318 316 317 321 325
155 150 166 141 143 158 174 232 274 293 298 301 308 314 318 315 315 320 321 321 321 322 325 330 326 322 314 309 265 277 275 282 286 290 304 306 302 307 307 311 313 317 318 323
177 150 149 152 155 187 252 281 292 297 300 304 309 315 317 313 318 319 319 319 322 325 329 332 324 319 309 300 269 257 271 277 281 291 295 297 296 299 311 312 311 312 313 320
139 132 138 161 206 263 297 304 306 303 303 306 313 316 317 315 313 315 316 318 322 324 332 327 323 320 313 287 279 289 287 289 282 289 301 294 289 291 307 305 306 306 307 315
135 144 155 208 307 316 316 316 310 306 309 312 314 314 313 316 318 323 319 316 319 325 323 317 317 312 313 280 276 293 297 304 300 279 295 285 287 284 294 297 298 303 304 307
159 218 312 322 321 319 316 312 307 307 310 310 310 313 318 322 326 331 321 319 329 327 313 314 304 311 300 274 267 279 288 297 300 283 288 275 277 281 286 290 292 292 291 297
276 305 320 318 314 313 312 310 311 311 309 307 310 318 322 321 329 325 317 313 324 324 316 312 308 314 288 269 262 267 277 284 288 286 283 264 272 274 277 277 284 285 286 285
294 302 310 314 313 312 311 316 320 316 311 308 312 315 319 317 321 319 316 322 323 321 323 316 316 308 280 263 261 266 271 280 285 283 282 281 265 265 269 273 279 285 282 288
300 306 313 316 316 317 319 323 320 314 305 302 303 307 314 316 317 317 315 315 313 317 318 319 315 310 277 268 269 268 277 280 283 287 285 273 267 266 266 270 272 280 285 286
304 309 314 319 320 322 322 323 320 317 310 304 301 304 308 313 316 318 311 311 311 312 314 320 310 306 297 282 274 276 278 276 276 280 284 281 278 267 263 260 263 269 274 281
320 318 320 319 317 317 316 314 308 307 304 299 294 300 311 318 322 323 322 323 323 322 319 320 323 307 299 295 290 286 283 280 278 278 279 278 280 284 271 261 257 257 263 269
316 315 314 313 313 313 312 311 307 303 306 306 306 310 318 320 321 319 321 322 322 320 320 320 320 320 318 310 303 300 297 294 290 283 278 273 276 283 280 269 261 259 260 263